This is the latest recevied weather packets stored in our database for station/object N3TTT-13. If no packets are shown the sender has not sent any weather packets the latest 10 day(s).
| Time | Temp. | Humidity | Pressure | Rain* | Wind** | Luminosity | Snow |
|---|---|---|---|---|---|---|---|
| 1777057446 | 25° C | 42% | 1008.6 hPa | 0 mm | - | 358 W/m² | - |
| 1777057142 | 25° C | 41% | 1008.5 hPa | 0 mm | - | 505 W/m² | - |
| 1777056837 | 24.44° C | 40% | 1008.7 hPa | 0 mm | - | 504 W/m² | - |
| 1777056532 | 23.89° C | 45% | 1008.6 hPa | 0 mm | - | 544 W/m² | - |
| 1777056227 | 24.44° C | 42% | 1008.8 hPa | 0 mm | - | 212 W/m² | - |
| 1777055924 | 24.44° C | 44% | 1008.9 hPa | 0 mm | - | 437 W/m² | - |
| 1777055620 | 24.44° C | 42% | 1008.7 hPa | 0 mm | - | 181 W/m² | - |
| 1777055315 | 23.89° C | 42% | 1009 hPa | 0 mm | - | 177 W/m² | - |
| 1777055014 | 23.89° C | 41% | 1008.7 hPa | 0 mm | - | 172 W/m² | - |
| 1777054711 | 24.44° C | 44% | 1008.9 hPa | 0 mm | - | 158 W/m² | - |
| 1777054407 | 24.44° C | 41% | 1008.6 hPa | 0 mm | - | 372 W/m² | - |
| 1777054106 | 24.44° C | 40% | 1008.7 hPa | 0 mm | - | 278 W/m² | - |
| 1777053801 | 24.44° C | 44% | 1008.8 hPa | 0 mm | - | 359 W/m² | - |
| 1777053501 | 25° C | 42% | 1008.7 hPa | 0 mm | - | 601 W/m² | - |
| 1777053197 | 25° C | 41% | 1008.7 hPa | 0 mm | - | 620 W/m² | - |
| 1777052894 | 24.44° C | 41% | 1008.9 hPa | 0 mm | - | 628 W/m² | - |
| 1777052589 | 24.44° C | 41% | 1008.9 hPa | 0 mm | - | 628 W/m² | - |
| 1777052285 | 24.44° C | 37% | 1008.8 hPa | 0 mm | - | 608 W/m² | - |
| 1777051981 | 24.44° C | 38% | 1008.6 hPa | 0 mm | - | 612 W/m² | - |
| 1777051677 | 23.89° C | 40% | 1008.9 hPa | 0 mm | - | 313 W/m² | - |
| 1777051373 | 25° C | 38% | 1008.9 hPa | 0 mm | - | 659 W/m² | - |
* Rain latest hour (hover to see other rain measurements)
** Current wind speed in m/s (hover to see current wind gust speed)